Regional Weather Roundup
Issued by NWS Cleveland, OH

Home | Current Version | Previous Version | Text Only | Print | Product List | Glossary On
Versions: 1 2 3 4 5 6 7 8 9 10 11 12 13 14 15 16 17 18 19 20 21 22 23 24 25 26 27 28 29 30 31 32 33 34 35 36 37 38 39 40 41 42 43 44 45 46 47 48 49 50
000
ASUS41 KCLE 241212
RWRCLE
OHIO REGIONAL WEATHER ROUNDUP
NATIONAL WEATHER SERVICE WILMINGTON, OH
800 AM EDT MON JUL 24 2017

NOTE: "FAIR" INDICATES FEW OR NO CLOUDS BELOW 12,000 FEET WITH NO
SIGNIFICANT WEATHER AND/OR OBSTRUCTIONS TO VISIBILITY.

OHZ001>008-015>018-024>027-034-035-043-044-241300-
   NORTHWEST OHIO

CITY           SKY/WX    TMP DP  RH WIND       PRES   REMARKS
DEFIANCE       FAIR     N/A N/A N/A N8        29.91R
FINDLAY        FAIR      70  64  81 N8        29.88R
TOLEDO EXPRESS PTSUNNY   66  64  93 N13       29.89R
TOLEDO EXEC    PTSUNNY   68  64  87 N12       29.90R
LIMA           FAIR      68  67  96 NW8       29.90R
$$

OHZ009>014-019>023-028>033-038-089-241300-
   NORTHEAST OHIO

CITY           SKY/WX    TMP DP  RH WIND       PRES   REMARKS
CLE-HOPKINS    PTSUNNY   73  66  78 N9        29.87R
CLE-LAKEFRONT  CLOUDY    72  64  76 N13       29.84R
CUY CO. ARPT   CLOUDY    72  50  46 N8        29.86R
LORAIN-ELYRIA  PTSUNNY   70  63  78 N5        29.87R
ASHTABULA      CLOUDY    69  69 100 NW3       29.85R
AKRON-CANTON   PTSUNNY   68  65  90 SW6       29.87R
WOOSTER        PTSUNNY   67  67 100 W3        29.87S
MANSFIELD      CLOUDY    68  67  96 W7        29.88R
YOUNGSTOWN     CLOUDY    67  65  93 W7        29.85R FOG
$$

OHZ042-051>053-060>062-070>072-077>081-241300-
  SOUTHWEST OHIO

CITY           SKY/WX    TMP DP  RH WIND       PRES   REMARKS
CINC-COVINGTON FAIR      72  71  97 W7        29.91R
CINC-LUNKEN    FAIR      74  71  91 W7        29.90R
HAMILTON       FAIR      72  71  97 W7        29.91R FOG
DAYTON         FAIR      70  67  90 NW9       29.91R
WRIGHT-PAT AFB MOSUNNY   71  71 100 NW5       29.89R
DAYTON GENERAL PTSUNNY   71  68  90 W6        29.90R
WILMINGTON     PTSUNNY   71  71 100 W12       29.89R
$$

OHZ036-037-039>041-045>050-054>059-063>069-073>076-082>088-241300-
  CENTRAL AND SOUTHEAST OHIO

CITY           SKY/WX    TMP DP  RH WIND       PRES   REMARKS
COLUMBUS       PTSUNNY   69  69 100 CALM      29.87R
OSU AIRPORT    PTSUNNY   69  69 100 W7        29.88R
BOLTON FIELD   NOT AVBL
RICKENBACK AFB FAIR      68  68 100 S3        29.87R
NEWARK         FAIR      70  67  90 CALM      29.87R
MARION         FAIR      69  66  90 NW7       29.88R FOG
LANCASTER      FAIR      59  32  36 CALM      29.88R
ZANESVILLE     FAIR      67  65  93 S3        29.88R
NEW PHILLY     CLOUDY    68  68 100 CALM      29.87R
$$



USA.gov is the U.S. government's official web portal to all federal, state and local government web resources and services.